Manchester, NH

6:12 PM EDT on October 01, 2016 (GMT -0400)
Manchester

Weather History for KMHT - August, 2013

Change the Weather History Date:

Sunday, August 11, 2013

  Actual Average Record
Temperature  
Mean Temperature 67 °F 72 °F  
Max Temperature 80 °F 82 °F 99 °F (1949)
Min Temperature 55 °F 62 °F 41 °F (1963)
Degree Days  
Heating Degree Days 0 0  
Month to date heating degree days 0  
Since 1 June heating degree days 63  
Since 1 July heating degree days 5  
Cooling Degree Days 2 7  
Month to date cooling degree days 82  
Year to date cooling degree days 471  
Since 1 June cooling degree days 441  
Growing Degree Days 17 (Base 50)    
Moisture  
Dew Point 52 °F    
Average Humidity 59    
Maximum Humidity 89    
Minimum Humidity 34    
Precipitation  
Precipitation 0.00 in 0.13 in 0.74 in (1955)
Month to date precipitation 1.41  
Year to date precipitation 27.04  
Snow  
Snow 0.00 in - - ()
Month to date snowfall  
Since 1 July snowfall  
Snow Depth -    
Sea Level Pressure  
Sea Level Pressure 30.06 in    
Wind  
Wind Speed 2 mph (WNW)    
Max Wind Speed 12 mph    
Max Gust Speed -    
Visibility 10 miles    
Events      
T = Trace of Precipitation, MM = Missing Value Source: NWS Daily Summary

Daily Weather History Graph

Daily Weather History Graph

Search for Another Location

Airport or City:

Trip Planner

Search our weather history database for the weather conditions in past years. The results will help you decide how hot, cold, wet, or windy it might be!

Date:

Astronomy

Aug. 11, 2013 Rise Set
Actual Time 5:47 AM EDT 7:53 PM EDT
Civil Twilight 5:16 AM EDT 8:24 PM EDT
Nautical Twilight 4:38 AM EDT 9:02 PM EDT
Astronomical Twilight 3:56 AM EDT 9:43 PM EDT
Moon 10:41 AM EDT (8/11) 9:57 PM EDT (8/11)
Length of Visible Light 15h 07m
Length of Day
14h 05m
Waxing Crescent, 22% of the Moon is Illuminated
Aug 11
Waxing Crescent
Aug 14
First Quarter
Aug 20
Full
Aug 28
Last Quarter
Sep 5
New

Hourly Weather History & Observations

Time (EDT) Temp. Dew Point Humidity Pressure Visibility Wind Dir Wind Speed Gust Speed Precip Events Conditions
12:53 AM 61.0 °F 53.1 °F 75% 30.05 in 10.0 mi Calm Calm - N/A   Clear
1:53 AM 62.1 °F 52.0 °F 70% 30.05 in 10.0 mi Calm Calm - N/A   Clear
2:53 AM 59.0 °F 52.0 °F 78% 30.05 in 10.0 mi Calm Calm - N/A   Clear
3:53 AM 57.0 °F 52.0 °F 83% 30.06 in 10.0 mi Calm Calm - N/A   Clear
4:53 AM 55.0 °F 52.0 °F 89% 30.07 in 10.0 mi Calm Calm - N/A   Clear
5:53 AM 55.0 °F 52.0 °F 89% 30.08 in 10.0 mi Calm Calm - N/A   Clear
6:53 AM 57.0 °F 52.0 °F 83% 30.09 in 10.0 mi Calm Calm - N/A   Clear
7:53 AM 61.0 °F 52.0 °F 72% 30.10 in 10.0 mi Calm Calm - N/A   Clear
8:53 AM 66.9 °F 53.1 °F 61% 30.10 in 10.0 mi NW 3.5 mph - N/A   Clear
9:53 AM 71.1 °F 52.0 °F 51% 30.10 in 10.0 mi NW 8.1 mph - N/A   Partly Cloudy
10:53 AM 73.0 °F 48.9 °F 42% 30.09 in 10.0 mi WNW 6.9 mph - N/A   Partly Cloudy
11:53 AM 75.0 °F 48.0 °F 38% 30.09 in 10.0 mi NNW 11.5 mph - N/A   Partly Cloudy
12:53 PM 75.0 °F 50.0 °F 41% 30.07 in 10.0 mi Variable 4.6 mph - N/A   Partly Cloudy
1:53 PM 77.0 °F 48.9 °F 37% 30.05 in 10.0 mi West 8.1 mph - N/A   Partly Cloudy
2:53 PM 79.0 °F 48.0 °F 34% 30.05 in 10.0 mi North 6.9 mph - N/A   Partly Cloudy
3:53 PM 78.1 °F 48.0 °F 35% 30.04 in 10.0 mi NW 5.8 mph - N/A   Partly Cloudy
4:53 PM 79.0 °F 48.9 °F 35% 30.03 in 10.0 mi WSW 8.1 mph - N/A   Scattered Clouds
5:53 PM 78.1 °F 50.0 °F 37% 30.02 in 10.0 mi West 5.8 mph - N/A   Scattered Clouds
6:53 PM 77.0 °F 52.0 °F 42% 30.02 in 10.0 mi WNW 3.5 mph - N/A   Mostly Cloudy
7:53 PM 75.0 °F 53.1 °F 46% 30.02 in 10.0 mi West 3.5 mph - N/A   Clear
8:53 PM 70.0 °F 57.9 °F 65% 30.03 in 10.0 mi Calm Calm - N/A   Partly Cloudy
9:53 PM 69.1 °F 57.9 °F 68% 30.04 in 10.0 mi Calm Calm - N/A   Clear
10:53 PM 64.9 °F 57.9 °F 78% 30.04 in 10.0 mi South 3.5 mph - N/A   Clear
11:53 PM 64.0 °F 57.0 °F 78% 30.04 in 10.0 mi SSE 3.5 mph - N/A   Clear